Wind_Speed
40 35 33 29 39 33 40 53 49 48 48 46 45 45 45 43 40 38 35 31 31 30
34 31 30 29 31 31 34 40 43 46 49 48 46 44 44 43 40 37 36 34 34 31
24 25 25 29 30 32 32 31 35 39 44 49 46 44 43 42 40 37 35 36 36 34
18 21 22 23 26 28 29 30 31 34 35 41 45 43 41 40 42 37 33 33 37 37
15 18 19 19 21 23 24 25 29 29 31 35 43 40 37 38 40 36 31 31 35 36
13 12 12 14 17 20 25 29 27 30 30 33 34 32 29 32 34 33 32 31 32 32
15 13 8 6 7 14 14 17 17 18 24 23 19 20 23 27 33 31 30 29 29 31
9 5 3 2 4 4 12 13 14 15 17 22 26 25 24 32 31 30 28 25 24 25
4 1 4 6 7 11 14 11 14 16 19 17 19 23 27 32 33 30 28 25 25 24
18 11 12 6 10 9 13 10 16 15 15 18 25 26 31 40 37 33 27 23 21 22
20 16 14 10 8 8 9 10 10 11 15 17 19 23 25 22 30 29 21 18 17 17
22 18 14 11 11 9 7 7 10 10 12 13 14 15 17 21 22 21 16 17 17 16
20 18 18 15 12 9 9 7 8 8 8 9 11 16 16 14 17 17 16 17 17 16
17 16 15 15 12 11 9 7 6 6 4 2 6 11 14 16 15 17 18 18 19 18
Wind_Direction
215 214 213 214 213 219 223 230 228 224 224 223 223 223 226 227 226 224 227 226 222 225
213 211 209 210 212 216 220 226 228 230 225 224 223 223 224 225 225 224 227 230 236 229
206 209 210 210 212 214 221 222 227 231 228 225 221 219 223 224 223 223 232 234 233 232
203 208 211 212 212 213 220 223 233 229 233 231 224 222 225 225 223 224 231 235 234 235
202 197 205 204 211 216 219 220 231 232 230 229 226 225 228 228 226 225 231 237 234 236
133 159 196 204 213 225 228 225 228 229 224 212 221 220 225 237 234 232 236 236 234 234
98 104 102 135 170 162 179 180 184 196 197 193 193 212 226 226 236 239 235 235 235 234
62 96 174 244 237 220 185 191 201 204 199 208 214 222 231 235 230 237 232 226 228 231
66 111 112 182 204 262 267 231 214 222 229 231 236 249 246 244 234 231 221 219 223 229
73 35 59 179 217 221 244 223 220 212 230 232 234 243 241 234 226 220 217 222 231 236
46 47 60 69 97 164 191 203 199 194 199 210 218 220 225 222 215 202 214 230 236 243
30 31 37 46 64 90 124 169 172 181 207 215 206 204 188 183 191 217 227 231 244 247
26 26 28 34 40 60 72 95 114 144 175 188 201 208 203 212 222 219 226 235 239 246
31 33 31 33 40 48 57 72 79 86 99 153 218 238 227 223 229 232 225 236 245 245
Height
1384 1387 1390 1393 1395 1405 1410 1416 1419 1427 1433 1440 1445 1450 1456 1464 1469 1473 1476 1480 1484 1488
1379 1382 1383 1389 1397 1402 1409 1410 1413 1419 1426 1431 1437 1443 1450 1457 1462 1466 1469 1472 1477 1481
1375 1378 1384 1390 1394 1400 1405 1403 1407 1413 1419 1425 1430 1437 1443 1450 1456 1460 1463 1467 1470 1474
1371 1376 1381 1383 1388 1393 1397 1400 1404 1409 1415 1420 1426 1432 1438 1444 1450 1453 1456 1460 1462 1467
1367 1372 1375 1379 1383 1388 1392 1396 1400 1405 1409 1414 1422 1426 1433 1439 1443 1447 1449 1452 1455 1460
1369 1371 1374 1377 1380 1384 1387 1393 1397 1401 1404 1409 1416 1422 1427 1435 1440 1441 1443 1446 1449 1452
1372 1373 1377 1379 1381 1383 1387 1391 1394 1399 1402 1405 1411 1416 1422 1425 1434 1437 1437 1439 1442 1445
1378 1376 1379 1383 1384 1384 1387 1391 1394 1397 1399 1403 1406 1411 1413 1417 1423 1430 1432 1433 1437 1439
1381 1376 1380 1379 1378 1379 1386 1386 1388 1391 1395 1397 1402 1407 1408 1410 1418 1423 1425 1428 1432 1436
1373 1380 1375 1380 1380 1379 1382 1384 1390 1388 1392 1393 1396 1399 1403 1409 1411 1415 1419 1424 1427 1430
1390 1387 1382 1382 1381 1382 1381 1381 1382 1385 1387 1390 1393 1394 1399 1397 1403 1405 1411 1416 1421 1423
1391 1391 1388 1386 1383 1382 1382 1382 1382 1383 1386 1386 1390 1393 1395 1399 1401 1407 1407 1412 1416 1420
1399 1395 1392 1390 1388 1385 1383 1382 1382 1382 1384 1385 1387 1390 1393 1396 1398 1402 1403 1408 1412 1414
1404 1401 1398 1396 1393 1390 1387 1384 1383 1382 1383 1384 1386 1387 1390 1393 1395 1399 1402 1405 1408 1409